FW3958 Weather Reports


time (UTC)temp
C
wind
direction
speed
KPH
gust
KPH
rain 1hr
cm
rain 24hr
cm
rain mn
cm
humidity
%
barometer
mb
20260831143046 7 52 0.0 0.0 0.00 0.00 0.00 100 1014.3
20260831141543 7 16 0.0 0.0 0.00 0.00 0.00 100 1014.4
20260831140043 7 13 0.0 0.0 0.00 0.00 0.00 100 1014.6
20260831134543 7 13 0.0 0.0 0.00 0.00 0.00 100 1014.7
20260831133041 7 13 0.0 0.0 0.00 0.00 0.00 100 1014.5
20260831131537 7 13 0.0 0.0 0.00 0.00 0.00 100 1014.7
20260831130035 7 13 0.0 0.0 0.00 0.00 0.00 100 1014.9
20260831124536 8 13 0.0 0.0 0.00 0.00 0.00 100 1014.9
20260831123031 7 13 0.0 0.0 0.00 0.00 0.00 100 1015.0
20260831121529 8 13 0.0 0.0 0.00 0.00 0.00 100 1015.2
20260831120031 8 13 0.0 0.0 0.00 0.00 0.00 100 1015.4
20260831114525 8 13 0.0 0.0 0.00 0.00 0.00 100 1015.5
20260831113022 8 13 0.0 0.0 0.00 0.00 0.00 100 1015.6
20260831111528 8 13 0.0 0.0 0.00 0.00 0.00 100 1015.6
20260831110019 8 13 0.0 0.0 0.00 0.00 0.00 100 1015.7
20260831104529 8 13 0.0 0.0 0.00 0.00 0.00 100 1015.9
20260831103035 8 13 0.0 0.0 0.00 0.00 0.00 100 1015.8
20260831101513 8 13 0.0 0.0 0.00 0.00 0.00 100 1016.0
20260831100017 8 13 0.0 0.0 0.00 0.00 0.00 100 1016.2
20260831094522 9 13 0.0 0.0 0.00 0.00 0.00 100 1016.4
20260831093007 9 13 0.0 0.0 0.00 0.00 0.00 100 1016.6
20260831091503 10 13 0.0 0.0 0.00 0.00 0.00 100 1016.7
20260831090003 10 13 0.0 0.0 0.00 0.00 0.00 100 1017.0
20260831084600 10 13 0.0 0.0 0.00 0.00 0.00 100 1017.1
20260831083058 10 13 0.0 0.0 0.00 0.00 0.00 100 1017.2
20260831081555 10 13 0.0 0.0 0.00 0.00 0.00 100 1017.3
20260831080103 10 13 0.0 0.0 0.00 0.00 0.00 100 1017.5
20260831074550 11 13 0.0 0.0 0.00 0.00 0.00 100 1017.6
20260831073048 11 13 0.0 0.0 0.00 0.00 0.00 100 1017.8
20260831071545 11 13 0.0 0.0 0.00 0.00 0.00 100 1017.9
20260831070042 11 13 0.0 0.0 0.00 0.00 0.00 100 1018.2
20260831064541 11 13 0.0 0.0 0.00 0.00 0.00 100 1018.2
20260831063038 11 13 0.0 0.0 0.00 0.00 0.00 100 1018.5
20260831061538 12 13 0.0 0.0 0.00 0.00 0.00 100 1018.6
20260831060038 12 13 0.0 0.0 0.00 0.03 0.00 98 1018.8
20260831054535 12 13 0.0 0.0 0.00 0.03 0.00 98 1019.0
20260831053034 13 13 0.0 0.0 0.00 0.03 0.00 97 1019.1
20260831051534 13 13 0.0 0.0 0.00 0.03 0.00 97 1019.3
20260831050032 13 13 0.0 0.0 0.00 0.03 0.00 96 1019.4
20260831044531 14 13 0.0 1.6 0.00 0.03 0.00 95 1019.5
20260831043029 14 14 0.0 6.4 0.00 0.03 0.00 94 1019.7
20260831041537 15 17 0.0 8.0 0.00 0.03 0.00 93 1019.7
20260831040030 15 338 0.0 3.2 0.00 0.03 0.00 91 1019.8
20260831034529 15 354 0.0 3.2 0.00 0.03 0.00 90 1019.8
20260831033029 16 342 0.0 6.4 0.00 0.03 0.00 88 1019.7
20260831031539 16 326 1.6 8.0 0.00 0.03 0.00 87 1019.5
20260831030027 16 331 1.6 6.4 0.00 0.08 0.00 86 1019.6
20260831024526 17 336 0.0 11.3 0.00 0.08 0.00 84 1019.6
20260831023024 17 343 3.2 12.9 0.00 0.08 0.00 83 1019.7
20260831021524 17 353 6.4 12.9 0.00 0.08 0.00 81 1019.7
20260831020023 18 2 4.8 16.1 0.00 0.08 0.00 78 1019.9
20260831014522 18 337 6.4 14.5 0.00 0.08 0.00 79 1020.1
20260831013019 18 313 3.2 14.5 0.00 0.08 0.00 78 1020.3
20260831011517 19 354 4.8 14.5 0.00 0.08 0.00 77 1020.5
20260831010030 19 1 4.8 12.9 0.00 0.08 0.00 76 1020.6
20260831004515 19 347 4.8 14.5 0.00 0.08 0.00 76 1020.6
20260831003013 19 339 6.4 16.1 0.00 0.08 0.00 75 1020.9
20260831001511 19 355 6.4 16.1 0.00 0.08 0.00 76 1020.9
20260831000020 20 286 8.0 16.1 0.00 0.08 0.00 75 1020.9
20260830234507 20 330 8.0 16.1 0.00 0.08 0.00 76 1021.0
20260830233006 20 292 6.4 12.9 0.00 0.08 0.00 76 1021.1
20260830231505 19 334 8.0 16.1 0.00 0.08 0.00 78 1021.1
20260830230009 20 338 6.4 14.5 0.00 0.10 0.00 77 1021.2
20260830224502 20 300 0.0 12.9 0.00 0.10 0.00 76 1021.3
20260830223104 20 309 8.0 14.5 0.00 0.10 0.00 78 1021.6
20260830221610 19 326 8.0 16.1 0.00 0.10 0.00 77 1021.6
20260830220055 19 306 6.4 14.5 0.00 0.10 0.00 78 1021.8
20260830214553 19 338 6.4 12.9 0.00 0.10 0.00 77 1021.9
20260830213049 19 9 8.0 14.5 0.00 0.10 0.00 80 1022.1
20260830211549 18 316 4.8 12.9 0.00 0.10 0.00 80 1022.2
20260830210047 18 288 4.8 12.9 0.00 0.10 0.00 82 1022.3
20260830204545 18 262 4.8 9.7 0.00 0.10 0.00 87 1022.3
20260830203051 19 276 8.0 12.9 0.00 0.10 0.00 79 1022.3
20260830201558 18 315 0.0 12.9 0.00 0.10 0.00 79 1022.4
20260830200056 18 317 0.0 12.9 0.00 0.10 0.00 82 1022.5
20260830194548 18 308 1.6 6.4 0.00 0.10 0.00 83 1022.5
20260830193035 17 289 1.6 6.4 0.00 0.10 0.00 84 1022.7
20260830191535 17 284 3.2 9.7 0.00 0.10 0.00 85 1022.8
20260830190040 18 242 0.0 9.7 0.00 0.10 0.00 83 1022.8
20260830184533 17 308 3.2 14.5 0.00 0.10 0.00 86 1023.0
20260830183033 17 286 4.8 11.3 0.00 0.10 0.00 87 1022.9
20260830181533 18 273 0.0 8.0 0.00 0.10 0.00 80 1022.8
20260830180030 17 271 0.0 3.2 0.00 0.10 0.00 86 1022.8
20260830174527 17 309 0.0 4.8 0.00 0.10 0.00 90 1022.6
20260830173026 16 288 0.0 0.0 0.00 0.10 0.00 90 1022.8
20260830171526 16 268 0.0 4.8 0.00 0.10 0.00 93 1022.7
20260830170032 17 297 0.0 6.4 0.00 0.10 0.00 91 1022.6
20260830164543 17 309 0.0 0.0 0.00 0.10 0.00 88 1022.5
20260830163019 16 238 0.0 0.0 0.00 0.10 0.00 98 1022.6
20260830161515 15 238 0.0 0.0 0.00 0.10 0.00 100 1022.6
20260830160012 14 289 0.0 0.0 0.00 0.15 0.00 100 1022.6
20260830154511 13 290 0.0 0.0 0.00 0.15 0.00 100 1022.8
20260830153010 12 290 0.0 0.0 0.00 0.15 0.00 100 1022.9
20260830151503 12 290 0.0 0.0 0.00 0.15 0.00 100 1022.8
20260830150101 11 290 0.0 0.0 0.00 0.43 0.00 100 1022.9
20260830144558 10 290 0.0 0.0 0.00 0.43 0.00 100 1022.9